Hastings, NE

3:04 AM CST on February 20, 2017 (GMT -0600)
Hastings Municipal

Weather History for KHSI - October, 2011

Change the Weather History Date:

Sunday, October 23, 2011

  Actual Average Record
Temperature  
Mean Temperature 56 °F 50 °F  
Max Temperature 75 °F 61 °F 90 °F (1927)
Min Temperature 36 °F 38 °F 15 °F (1917)
Degree Days  
Heating Degree Days 9 16  
Month to date heating degree days 195 257  
Since 1 July heating degree days 353 353  
Cooling Degree Days 0 0  
Month to date cooling degree days 24 11  
Year to date cooling degree days 1119 1074  
Growing Degree Days 6 (Base 50)    
Moisture  
Dew Point 37 °F    
Average Humidity 58    
Maximum Humidity 92    
Minimum Humidity 23    
Precipitation  
Precipitation 0.00 in 0.06 in 1.08 in (1906)
Month to date precipitation 1.34 1.59  
Year to date precipitation 25.71 24.81  
Snow  
Snow 0.00 in 0.10 in 3.10 in (2002)
Month to date snowfall 0.0 0.6  
Since 1 July snowfall 0.0 0.8  
Since 1 September snowfall 0.0 0.8  
Snow Depth 0.00 in    
Sea Level Pressure  
Sea Level Pressure 30.00 in    
Wind  
Wind Speed 6 mph (West)    
Max Wind Speed 22 mph    
Max Gust Speed 26 mph    
Visibility 10 miles    
Events      
T = Trace of Precipitation, MM = Missing Value Source: NWS Daily Summary

Daily Weather History Graph

Daily Weather History Graph

Search for Another Location

Airport or City:

Trip Planner

Search our weather history database for the weather conditions in past years. The results will help you decide how hot, cold, wet, or windy it might be!

Date:

Astronomy

Oct. 23, 2011 Rise Set
Actual Time 7:53 AM CDT 6:42 PM CDT
Civil Twilight 7:25 AM CDT 7:10 PM CDT
Nautical Twilight 6:53 AM CDT 7:41 PM CDT
Astronomical Twilight 6:21 AM CDT 8:13 PM CDT
Moon 4:01 AM CDT (10/23) 4:34 PM CDT (10/23)
Length of Visible Light 11h 44m
Length of Day
10h 48m
Waning Crescent, 14% of the Moon is Illuminated
Oct 23
Waning Crescent
Oct 26
New
Nov 2
First Quarter
Nov 10
Full
Nov 18
Last Quarter

Hourly Weather History & Observations

Time (CDT) Temp. Windchill Dew Point Humidity Pressure Visibility Wind Dir Wind Speed Gust Speed Precip Events Conditions
12:53 AM 42.1 °F - 37.9 °F 85% 30.02 in 10.0 mi Calm Calm - N/A   Clear
1:53 AM 37.9 °F - 35.1 °F 89% 30.01 in 10.0 mi Calm Calm - N/A   Clear
2:53 AM 37.0 °F 34.5 °F 34.0 °F 89% 30.01 in 10.0 mi WSW 3.5 mph - N/A   Clear
3:53 AM 43.0 °F - 37.0 °F 80% 30.00 in 10.0 mi Calm Calm - N/A   Clear
4:53 AM 39.0 °F 36.8 °F 36.0 °F 89% 29.99 in 10.0 mi SW 3.5 mph - N/A   Clear
5:53 AM 43.0 °F 41.3 °F 37.9 °F 82% 29.99 in 10.0 mi SW 3.5 mph - N/A   Clear
6:53 AM 42.1 °F - 37.9 °F 85% 29.99 in 10.0 mi Calm Calm - N/A   Clear
7:53 AM 41.0 °F 39.0 °F 37.0 °F 86% 30.00 in 10.0 mi SW 3.5 mph - N/A   Clear
8:53 AM 45.0 °F 42.6 °F 39.0 °F 80% 30.00 in 10.0 mi WSW 4.6 mph - N/A   Clear
9:53 AM 51.1 °F - 43.0 °F 74% 29.99 in 10.0 mi SW 6.9 mph - N/A   Clear
10:53 AM 57.2 °F - 42.8 °F 59% 29.99 in 10.0 mi WSW 5.8 mph - N/A   Clear
11:53 AM 66.9 °F - 43.0 °F 42% 29.98 in 10.0 mi SW 5.8 mph - N/A   Clear
12:53 PM 71.1 °F - 39.0 °F 31% 29.96 in 10.0 mi West 12.7 mph - N/A   Clear
1:53 PM 72.0 °F - 41.0 °F 33% 29.95 in 10.0 mi West 11.5 mph 19.6 mph N/A   Clear
2:53 PM 75.0 °F - 37.9 °F 26% 29.93 in 10.0 mi NW 17.3 mph 25.3 mph N/A   Clear
3:53 PM 75.0 °F - 37.0 °F 25% 29.94 in 10.0 mi NNW 15.0 mph 25.3 mph N/A   Clear
4:53 PM 73.9 °F - 33.1 °F 22% 29.96 in 10.0 mi NNW 18.4 mph 24.2 mph N/A   Clear
5:53 PM 72.0 °F - 33.1 °F 24% 29.96 in 10.0 mi NNW 11.5 mph - N/A   Clear
6:53 PM 60.8 °F - 33.8 °F 36% 30.00 in 10.0 mi NW 5.8 mph - N/A   Clear
7:53 PM 55.0 °F - 34.0 °F 45% 30.03 in 10.0 mi NNW 5.8 mph - N/A   Clear
8:53 PM 55.0 °F - 36.0 °F 49% 30.05 in 10.0 mi Calm Calm - N/A   Clear
9:53 PM 50.0 °F - 37.0 °F 61% 30.05 in 10.0 mi Calm Calm - N/A   Clear
10:53 PM 45.0 °F - 34.0 °F 65% 30.06 in 10.0 mi Calm Calm - N/A   Clear
11:53 PM 46.0 °F 44.8 °F 35.1 °F 66% 30.06 in 10.0 mi West 3.5 mph - N/A   Clear